AXY121C OOMS-EGPH

Flight info

Callsign AXY121C
Flight time N/A
Altitude 36000
Route MCT B400 DARAT DCT DAPOL DCT ITRUX/N0467F380 Y511 PMA Z712 WEJ L677 DARAX/N0461F400 L677 CVO L617 NOZ L551 ANTAR DCT KUGGI DCT XANIS DCT DIMIS DCT RODON DCT VAKSU DCT NEMEK DCT SIMBA DCT GASKA DCT MAPOX DCT AMGOD L602 EMLON M79 TENDO DCT NATEB Y96 AGPED
Aircraft B737/M-SDE2E3FGHIRWXY/LB1

Departure

Time N/A
Airport Muscat International Airport (OOMS)

Arrival

Time 2026-04-22 08:45
Airport Edinburgh Airport (EGPH)
Time Latitude Longitude Altitude Speed Heading
2026-04-22 06:52 48.15125 13.08767 40277 ft 440 kts 329°
2026-04-22 06:52 48.17748 13.06384 40275 ft 440 kts 329°
2026-04-22 06:53 48.22945 13.01618 40273 ft 440 kts 327°
2026-04-22 06:53 48.27777 12.95957 40270 ft 441 kts 321°
2026-04-22 06:54 48.32502 12.90095 40271 ft 441 kts 321°
2026-04-22 06:54 48.37246 12.84219 40284 ft 441 kts 321°
2026-04-22 06:55 48.42006 12.78352 40281 ft 441 kts 321°
2026-04-22 06:55 48.46737 12.72526 40278 ft 442 kts 322°
2026-04-22 06:56 48.51510 12.66638 40278 ft 442 kts 321°
2026-04-22 06:56 48.56268 12.60751 40279 ft 442 kts 321°
2026-04-22 06:57 48.61016 12.54862 40277 ft 442 kts 321°
2026-04-22 06:57 48.65773 12.48947 40277 ft 443 kts 321°
2026-04-22 06:58 48.70509 12.43043 40279 ft 443 kts 321°
2026-04-22 06:58 48.75264 12.37100 40281 ft 443 kts 321°
2026-04-22 06:59 48.80025 12.31134 40281 ft 443 kts 321°
2026-04-22 06:59 48.84754 12.25195 40287 ft 443 kts 321°
2026-04-22 07:00 48.89507 12.19209 40275 ft 443 kts 321°
2026-04-22 07:00 48.94260 12.13208 40289 ft 443 kts 321°
2026-04-22 07:01 48.99009 12.07196 40293 ft 443 kts 321°
2026-04-22 07:01 49.03751 12.01179 40296 ft 444 kts 321°
2026-04-22 07:02 49.08465 11.95181 40285 ft 444 kts 321°
2026-04-22 07:02 49.13220 11.89115 40296 ft 444 kts 321°
2026-04-22 07:03 49.17969 11.83041 40291 ft 445 kts 321°
2026-04-22 07:03 49.22693 11.76984 40294 ft 445 kts 321°
2026-04-22 07:04 49.27446 11.70874 40295 ft 445 kts 321°
2026-04-22 07:04 49.32172 11.64783 40294 ft 445 kts 321°
2026-04-22 07:05 49.36915 11.58654 40291 ft 445 kts 321°
2026-04-22 07:05 49.41626 11.52550 40292 ft 446 kts 321°
2026-04-22 07:06 49.46371 11.46387 40308 ft 446 kts 321°
2026-04-22 07:06 49.51120 11.40201 40308 ft 446 kts 321°
2026-04-22 07:07 49.55831 11.34049 40313 ft 446 kts 321°
2026-04-22 07:07 49.60572 11.27841 40314 ft 446 kts 321°
2026-04-22 07:08 49.65309 11.21623 40312 ft 446 kts 321°
2026-04-22 07:08 49.70018 11.15426 40314 ft 446 kts 321°
2026-04-22 07:09 49.74754 11.09176 40306 ft 447 kts 321°
2026-04-22 07:09 49.79458 11.02951 40306 ft 447 kts 321°
2026-04-22 07:10 49.84192 10.96670 40309 ft 447 kts 321°
2026-04-22 07:10 49.88898 10.90409 40311 ft 447 kts 321°
2026-04-22 07:11 49.93626 10.84103 40317 ft 447 kts 321°
2026-04-22 07:11 49.98356 10.77776 40323 ft 447 kts 321°
2026-04-22 07:12 50.03047 10.71484 40326 ft 448 kts 321°
2026-04-22 07:12 50.07768 10.65136 40319 ft 448 kts 321°
2026-04-22 07:13 50.12488 10.58772 40330 ft 448 kts 321°
2026-04-22 07:13 50.17170 10.52442 40323 ft 448 kts 321°
2026-04-22 07:14 50.21088 10.47132 40331 ft 448 kts 321°
2026-04-22 07:14 50.25803 10.40724 40333 ft 448 kts 321°
2026-04-22 07:15 50.30489 10.34340 40335 ft 448 kts 321°
2026-04-22 07:15 50.35179 10.27884 40337 ft 449 kts 318°
2026-04-22 07:16 50.39371 10.20633 40328 ft 451 kts 313°
2026-04-22 07:16 50.43408 10.13074 40327 ft 452 kts 312°
2026-04-22 07:17 50.47436 10.05557 40340 ft 451 kts 312°
2026-04-22 07:17 50.51510 9.98023 40345 ft 451 kts 313°
2026-04-22 07:18 50.55589 9.90499 40341 ft 451 kts 313°
2026-04-22 07:18 50.59641 9.83005 40344 ft 452 kts 313°
2026-04-22 07:19 50.63717 9.75443 40346 ft 452 kts 313°
2026-04-22 07:19 50.67786 9.67871 40337 ft 452 kts 313°
2026-04-22 07:20 50.71824 9.60331 40347 ft 452 kts 312°
2026-04-22 07:20 50.75895 9.52709 40341 ft 452 kts 312°
2026-04-22 07:21 50.79928 9.45135 40341 ft 452 kts 312°
2026-04-22 07:21 50.83988 9.37489 40353 ft 452 kts 312°
2026-04-22 07:22 50.88040 9.29836 40360 ft 453 kts 312°
2026-04-22 07:22 50.92062 9.22215 40361 ft 453 kts 312°
2026-04-22 07:23 50.96116 9.14511 40368 ft 453 kts 312°
2026-04-22 07:23 51.00129 9.06863 40362 ft 453 kts 312°
2026-04-22 07:24 51.04174 8.99130 40365 ft 453 kts 312°
2026-04-22 07:24 51.08184 8.91440 40362 ft 453 kts 312°
2026-04-22 07:25 51.12227 8.83666 40358 ft 454 kts 312°
2026-04-22 07:25 51.15896 8.75549 40368 ft 456 kts 305°
2026-04-22 07:26 51.19229 8.66962 40355 ft 456 kts 304°
2026-04-22 07:26 51.22545 8.58322 40355 ft 456 kts 304°
2026-04-22 07:27 51.25899 8.49679 40355 ft 456 kts 304°
2026-04-22 07:27 51.29241 8.41115 40360 ft 456 kts 304°
2026-04-22 07:28 51.34282 8.28174 40357 ft 456 kts 304°
2026-04-22 07:28 51.37633 8.19533 40359 ft 456 kts 304°
2026-04-22 07:29 51.40954 8.10937 40364 ft 456 kts 304°
2026-04-22 07:29 51.44288 8.02276 40371 ft 456 kts 304°
2026-04-22 07:30 51.47603 7.93638 40370 ft 456 kts 304°
2026-04-22 07:30 51.50928 7.84943 40374 ft 456 kts 304°
2026-04-22 07:31 51.54221 7.76304 40376 ft 456 kts 304°
2026-04-22 07:31 51.57518 7.67623 40372 ft 456 kts 303°
2026-04-22 07:32 51.60829 7.58877 40372 ft 455 kts 303°
2026-04-22 07:32 51.64101 7.50203 40373 ft 455 kts 303°
2026-04-22 07:33 51.67394 7.41447 40374 ft 455 kts 303°
2026-04-22 07:33 51.70649 7.32759 40375 ft 455 kts 303°
2026-04-22 07:34 51.73918 7.24004 40380 ft 455 kts 303°
2026-04-22 07:34 51.77185 7.15227 40381 ft 455 kts 303°
2026-04-22 07:35 51.80442 7.06444 40385 ft 455 kts 303°
2026-04-22 07:35 51.83688 6.97660 40387 ft 455 kts 303°
2026-04-22 07:36 51.86932 6.88854 40388 ft 455 kts 303°
2026-04-22 07:36 51.90152 6.80081 40383 ft 455 kts 303°
2026-04-22 07:37 51.93392 6.71220 40386 ft 455 kts 303°
2026-04-22 07:37 51.96603 6.62412 40383 ft 455 kts 303°
2026-04-22 07:38 51.99825 6.53539 40386 ft 456 kts 303°
2026-04-22 07:38 52.03022 6.44707 40386 ft 456 kts 302°
2026-04-22 07:39 52.06236 6.35796 40387 ft 456 kts 302°
2026-04-22 07:39 52.09420 6.26937 40383 ft 455 kts 302°
2026-04-22 07:40 52.12614 6.18018 40378 ft 455 kts 302°
2026-04-22 07:40 52.15782 6.09142 40379 ft 455 kts 302°
2026-04-22 07:41 52.18963 6.00196 40381 ft 455 kts 302°
2026-04-22 07:41 52.22142 5.91226 40376 ft 455 kts 302°
2026-04-22 07:42 52.25288 5.82315 40389 ft 456 kts 302°
2026-04-22 07:42 52.28457 5.73307 40397 ft 455 kts 302°
2026-04-22 07:43 52.31590 5.64372 40399 ft 455 kts 302°
2026-04-22 07:43 52.34737 5.55361 40392 ft 455 kts 301°
2026-04-22 07:44 52.37858 5.46395 40400 ft 455 kts 301°
2026-04-22 07:44 52.40997 5.37345 40402 ft 455 kts 301°
2026-04-22 07:45 52.44102 5.28359 40397 ft 455 kts 301°
2026-04-22 07:45 52.47221 5.19300 40398 ft 455 kts 301°
2026-04-22 07:46 52.50330 5.10239 40401 ft 455 kts 301°
2026-04-22 07:46 52.53414 5.01214 40403 ft 455 kts 301°
2026-04-22 07:47 52.56497 4.92162 40404 ft 455 kts 301°
2026-04-22 07:47 52.59590 4.83049 40399 ft 456 kts 301°
2026-04-22 07:48 52.62677 4.73920 40405 ft 456 kts 301°
2026-04-22 07:48 52.65737 4.64832 40405 ft 456 kts 301°
2026-04-22 07:49 52.68810 4.55676 40403 ft 456 kts 301°
2026-04-22 07:49 52.71883 4.46486 40403 ft 457 kts 301°
2026-04-22 07:50 52.74941 4.37305 40409 ft 457 kts 300°
2026-04-22 07:50 52.77983 4.28140 40406 ft 457 kts 300°
2026-04-22 07:51 52.81043 4.18885 40410 ft 457 kts 300°
2026-04-22 07:51 52.84073 4.09687 40410 ft 457 kts 300°
2026-04-22 07:52 52.87119 4.00404 40416 ft 457 kts 300°
2026-04-22 07:52 52.90136 3.91176 40415 ft 457 kts 300°
2026-04-22 07:53 52.93162 3.81883 40418 ft 457 kts 300°
2026-04-22 07:53 52.96160 3.72649 40417 ft 457 kts 300°
2026-04-22 07:54 52.99188 3.63363 40424 ft 457 kts 300°
2026-04-22 07:54 53.02257 3.54113 40420 ft 457 kts 300°
2026-04-22 07:55 53.05317 3.44895 40417 ft 456 kts 300°
2026-04-22 07:55 53.08378 3.35636 40420 ft 456 kts 300°
2026-04-22 07:56 53.10829 3.25894 40417 ft 459 kts 285°
2026-04-22 07:56 53.12183 3.15535 40424 ft 460 kts 283°
2026-04-22 07:57 53.13485 3.05101 40420 ft 460 kts 283°
2026-04-22 07:57 53.14825 2.94730 40419 ft 460 kts 284°
2026-04-22 07:58 53.16187 2.84308 40419 ft 460 kts 284°
2026-04-22 07:58 53.17542 2.73875 40425 ft 459 kts 284°
2026-04-22 07:59 53.18879 2.63496 40435 ft 459 kts 283°
2026-04-22 07:59 53.19994 2.54814 40409 ft 459 kts 285°
2026-04-22 08:00 53.22354 2.45000 40404 ft 455 kts 303°
2026-04-22 08:00 53.25753 2.36100 40417 ft 454 kts 304°
2026-04-22 08:01 53.29182 2.27288 40407 ft 455 kts 304°
2026-04-22 08:01 53.32597 2.18369 40428 ft 454 kts 304°
2026-04-22 08:02 53.35956 2.09462 40436 ft 454 kts 303°
2026-04-22 08:02 53.39314 2.00502 40433 ft 455 kts 303°
2026-04-22 08:03 53.42678 1.91498 40431 ft 455 kts 303°
2026-04-22 08:03 53.46044 1.82461 40441 ft 455 kts 303°
2026-04-22 08:04 53.49387 1.73435 40430 ft 456 kts 303°
2026-04-22 08:04 53.52714 1.64426 40444 ft 455 kts 303°
2026-04-22 08:05 53.56063 1.55347 40436 ft 456 kts 303°
2026-04-22 08:05 53.59381 1.46319 40444 ft 456 kts 303°
2026-04-22 08:06 53.62717 1.37202 40443 ft 456 kts 302°
2026-04-22 08:06 53.66029 1.28111 40443 ft 457 kts 302°
2026-04-22 08:07 53.69354 1.18952 40446 ft 457 kts 302°
2026-04-22 08:07 53.72671 1.09782 40449 ft 457 kts 302°
2026-04-22 08:08 53.75962 1.00650 40455 ft 457 kts 302°
2026-04-22 08:08 53.79269 0.91439 40451 ft 458 kts 302°
2026-04-22 08:09 53.82568 0.82217 40453 ft 458 kts 302°
2026-04-22 08:09 53.85843 0.73027 40455 ft 458 kts 302°
2026-04-22 08:10 53.89134 0.63756 40457 ft 458 kts 301°
2026-04-22 08:10 53.92402 0.54518 40457 ft 458 kts 301°
2026-04-22 08:11 53.95674 0.45232 40469 ft 458 kts 301°
2026-04-22 08:11 53.98927 0.35966 40460 ft 458 kts 301°
2026-04-22 08:12 54.02194 0.26650 40469 ft 458 kts 302°
2026-04-22 08:12 54.06161 0.18187 40469 ft 457 kts 313°
2026-04-22 08:13 54.10484 0.10305 40476 ft 457 kts 313°
2026-04-22 08:13 54.14818 0.02387 40471 ft 458 kts 313°
2026-04-22 08:14 54.19134 -0.05629 40474 ft 458 kts 313°
2026-04-22 08:14 54.23418 -0.13669 40479 ft 459 kts 312°
2026-04-22 08:15 54.27716 -0.21773 40483 ft 459 kts 312°
2026-04-22 08:15 54.32008 -0.29890 40483 ft 459 kts 312°
2026-04-22 08:16 54.36272 -0.37978 40486 ft 460 kts 312°
2026-04-22 08:16 54.40563 -0.46144 40489 ft 460 kts 312°
2026-04-22 08:17 54.44858 -0.54344 40493 ft 460 kts 312°
2026-04-22 08:17 54.49115 -0.62501 40495 ft 461 kts 312°
2026-04-22 08:18 54.53406 -0.70749 40497 ft 461 kts 312°
2026-04-22 08:18 54.57657 -0.78950 40496 ft 461 kts 312°
2026-04-22 08:19 54.61948 -0.87255 40494 ft 462 kts 311°
2026-04-22 08:19 54.66199 -0.95510 40504 ft 462 kts 311°
2026-04-22 08:20 54.70472 -1.03839 40506 ft 462 kts 311°
2026-04-22 08:20 54.74724 -1.12153 40508 ft 462 kts 311°
2026-04-22 08:21 54.79011 -1.20566 39556 ft 472 kts 311°
2026-04-22 08:21 54.81169 -1.24811 38564 ft 465 kts 311°
2026-04-22 08:21 54.83267 -1.28948 37889 ft 458 kts 311°
2026-04-22 08:22 54.85371 -1.33102 37164 ft 456 kts 311°
2026-04-22 08:22 54.87455 -1.37223 36481 ft 452 kts 311°
2026-04-22 08:22 54.89528 -1.41330 35694 ft 451 kts 310°
2026-04-22 08:22 54.91545 -1.45333 34890 ft 451 kts 310°
2026-04-22 08:23 54.93639 -1.49498 33928 ft 451 kts 310°
2026-04-22 08:23 54.95702 -1.53607 32966 ft 449 kts 310°
2026-04-22 08:23 54.97743 -1.57681 32314 ft 442 kts 310°
2026-04-22 08:23 54.99757 -1.61701 31632 ft 436 kts 310°
2026-04-22 08:24 55.01738 -1.65663 30998 ft 429 kts 310°
2026-04-22 08:24 55.03659 -1.69591 30323 ft 423 kts 306°
2026-04-22 08:24 55.05260 -1.73824 29685 ft 414 kts 299°
2026-04-22 08:24 55.06671 -1.78104 29025 ft 407 kts 298°
2026-04-22 08:25 55.08053 -1.82374 28386 ft 401 kts 298°
2026-04-22 08:25 55.09437 -1.86597 27741 ft 397 kts 297°
2026-04-22 08:25 55.10812 -1.90744 27094 ft 393 kts 298°
2026-04-22 08:25 55.12185 -1.94860 26462 ft 390 kts 298°
2026-04-22 08:26 55.13539 -1.98939 26021 ft 386 kts 298°
2026-04-22 08:26 55.14885 -2.03023 25585 ft 392 kts 297°
2026-04-22 08:26 55.16264 -2.07218 25119 ft 400 kts 298°
2026-04-22 08:26 55.17635 -2.11388 24658 ft 400 kts 298°
2026-04-22 08:27 55.19024 -2.15625 24174 ft 403 kts 297°
2026-04-22 08:27 55.20419 -2.19881 23628 ft 402 kts 298°
2026-04-22 08:27 55.21810 -2.24127 23105 ft 399 kts 298°
2026-04-22 08:27 55.23183 -2.28324 22640 ft 396 kts 298°
2026-04-22 08:28 55.24551 -2.32515 22176 ft 393 kts 297°
2026-04-22 08:28 55.25906 -2.36675 21724 ft 391 kts 297°
2026-04-22 08:28 55.27230 -2.40748 21304 ft 388 kts 297°
2026-04-22 08:28 55.28566 -2.44867 20847 ft 386 kts 297°
2026-04-22 08:29 55.29896 -2.48974 20393 ft 385 kts 297°
2026-04-22 08:29 55.31214 -2.53053 19959 ft 383 kts 297°
2026-04-22 08:29 55.32526 -2.57117 19518 ft 381 kts 297°
2026-04-22 08:29 55.33830 -2.61166 19090 ft 380 kts 297°
2026-04-22 08:30 55.35108 -2.65140 18633 ft 379 kts 297°
2026-04-22 08:30 55.36403 -2.69175 18144 ft 377 kts 297°
2026-04-22 08:30 55.37693 -2.73197 17697 ft 375 kts 297°
2026-04-22 08:30 55.38969 -2.77185 17261 ft 372 kts 297°
2026-04-22 08:31 55.40239 -2.81159 16819 ft 370 kts 297°
2026-04-22 08:31 55.41470 -2.85021 16387 ft 367 kts 297°
2026-04-22 08:31 55.43957 -2.92832 15550 ft 360 kts 297°
2026-04-22 08:32 55.45179 -2.96682 15136 ft 358 kts 297°
2026-04-22 08:32 55.46431 -3.00440 14721 ft 356 kts 303°
2026-04-22 08:32 55.47886 -3.03921 14302 ft 354 kts 306°
2026-04-22 08:32 55.49396 -3.07358 13871 ft 353 kts 307°
2026-04-22 08:33 55.50906 -3.10764 13431 ft 351 kts 307°
2026-04-22 08:33 55.52406 -3.14161 13017 ft 349 kts 307°
2026-04-22 08:33 55.53891 -3.17543 12608 ft 348 kts 307°
2026-04-22 08:33 55.55365 -3.20922 12207 ft 346 kts 307°
2026-04-22 08:34 55.56811 -3.24249 11817 ft 344 kts 307°
2026-04-22 08:34 55.58265 -3.27606 11414 ft 342 kts 307°
2026-04-22 08:34 55.59698 -3.30925 11008 ft 335 kts 307°
2026-04-22 08:34 55.61100 -3.34174 10631 ft 328 kts 308°
2026-04-22 08:35 55.62464 -3.37343 10457 ft 316 kts 308°
2026-04-22 08:35 55.63729 -3.40285 10395 ft 293 kts 308°
2026-04-22 08:35 55.64965 -3.43163 9728 ft 292 kts 308°
2026-04-22 08:35 55.66172 -3.45977 9226 ft 287 kts 308°
2026-04-22 08:36 55.67385 -3.48807 8604 ft 288 kts 308°
2026-04-22 08:36 55.68582 -3.51604 8122 ft 282 kts 308°
2026-04-22 08:36 55.69765 -3.54370 7686 ft 281 kts 308°
2026-04-22 08:36 55.70931 -3.57102 7346 ft 281 kts 308°
2026-04-22 08:37 55.72110 -3.59866 7012 ft 280 kts 308°
2026-04-22 08:37 55.73285 -3.62620 6653 ft 277 kts 308°
2026-04-22 08:37 55.74446 -3.65346 6325 ft 275 kts 308°
2026-04-22 08:37 55.75574 -3.68001 5991 ft 273 kts 308°
2026-04-22 08:38 55.76719 -3.70697 5673 ft 270 kts 308°
2026-04-22 08:38 55.78051 -3.72990 5343 ft 264 kts 329°
2026-04-22 08:38 55.79582 -3.74648 5040 ft 252 kts 332°
2026-04-22 08:38 55.81097 -3.75771 4736 ft 236 kts 360°
2026-04-22 08:39 55.82551 -3.75118 4543 ft 207 kts 43°
2026-04-22 08:39 55.83291 -3.73151 4400 ft 182 kts 70°
2026-04-22 08:39 55.83823 -3.71151 4171 ft 177 kts 66°
2026-04-22 08:39 55.84361 -3.69238 4148 ft 173 kts 68°
2026-04-22 08:40 55.84937 -3.67251 3934 ft 184 kts 65°
2026-04-22 08:40 55.85571 -3.65267 3680 ft 187 kts 63°
2026-04-22 08:40 55.86220 -3.63310 3421 ft 179 kts 62°
2026-04-22 08:40 55.86845 -3.61448 3177 ft 170 kts 61°
2026-04-22 08:41 55.87440 -3.59680 2943 ft 163 kts 61°
2026-04-22 08:41 55.88013 -3.57976 2720 ft 157 kts 62°
2026-04-22 08:41 55.88554 -3.56364 2508 ft 150 kts 62°
2026-04-22 08:41 55.89079 -3.54802 2307 ft 145 kts 61°
2026-04-22 08:42 55.89594 -3.53270 2104 ft 142 kts 61°
2026-04-22 08:42 55.90107 -3.51748 1905 ft 144 kts 60°
2026-04-22 08:42 55.90623 -3.50210 1694 ft 145 kts 60°
2026-04-22 08:42 55.91125 -3.48723 1492 ft 137 kts 60°
2026-04-22 08:43 55.91588 -3.47350 1313 ft 125 kts 61°
2026-04-22 08:43 55.92016 -3.46080 1141 ft 116 kts 61°
2026-04-22 08:43 55.92419 -3.44890 953 ft 106 kts 62°
2026-04-22 08:43 55.92785 -3.43792 840 ft 107 kts 62°
2026-04-22 08:44 55.93182 -3.42594 701 ft 116 kts 62°
2026-04-22 08:44 55.93590 -3.41400 468 ft 108 kts 62°
2026-04-22 08:44 55.93983 -3.40238 361 ft 112 kts 62°
2026-04-22 08:44 55.94383 -3.39067 204 ft 110 kts 61°
2026-04-22 08:45 55.94762 -3.37937 114 ft 99 kts 59°
2026-04-22 08:45 55.95044 -3.37112 111 ft 56 kts 58°
2026-04-22 08:45 55.95182 -3.36709 113 ft 31 kts 58°
2026-04-22 08:45 55.95246 -3.36522 111 ft 12 kts 58°
2026-04-22 08:46 55.95254 -3.36441 110 ft 8 kts 104°
2026-04-22 08:46 55.95221 -3.36381 113 ft 6 kts 145°
2026-04-22 08:46 55.95175 -3.36329 112 ft 6 kts 148°
2026-04-22 08:46 55.95148 -3.36276 113 ft 7 kts 110°
2026-04-22 08:47 55.95171 -3.36172 115 ft 12 kts 58°
2026-04-22 08:47 55.95211 -3.36051 114 ft 8 kts 68°
2026-04-22 08:47 55.95203 -3.35996 115 ft 7 kts 125°
2026-04-22 08:47 55.95160 -3.35939 115 ft 9 kts 149°
2026-04-22 08:48 55.95111 -3.35843 113 ft 11 kts 123°
2026-04-22 08:48 55.95068 -3.35733 113 ft 11 kts 122°
2026-04-22 08:48 55.95031 -3.35614 112 ft 12 kts 118°
2026-04-22 08:48 55.94982 -3.35454 114 ft 17 kts 118°
2026-04-22 08:49 55.94916 -3.35242 113 ft 22 kts 118°
2026-04-22 08:49 55.94843 -3.35006 113 ft 18 kts 119°
2026-04-22 08:49 55.94789 -3.34839 115 ft 10 kts 131°
2026-04-22 08:49 55.94761 -3.34766 115 ft 7 kts 93°
2026-04-22 08:50 55.94782 -3.34689 112 ft 8 kts 58°
2026-04-22 08:50 55.94817 -3.34586 115 ft 10 kts 59°
2026-04-22 08:50 55.94821 -3.34546 116 ft 3 kts 114°
2026-04-22 08:50 55.94810 -3.34520 112 ft 3 kts 140°
2026-04-22 08:51 55.94795 -3.34505 113 ft 2 kts 148°
2026-04-22 08:51 55.94787 -3.34495 115 ft 0 kts 148°